time_stamp(utc),avg(mph),gust(mph),direction(deg),12m_air_temp(f),sonic_u(cm/s),sonic_v(cm/s),sonic_w(cm/s),pressure,2m_air_temp(f),pyranometer(W/m^2)
"2020-03-17 00:02:45+00",18.1,21.1,,43.1,-1539,3772,-2176,1030.49,43.1,0
"2020-03-17 00:07:45+00",15.7,17.7,,43.1,-1470,3488,-1986,1030.6,43.1,0
"2020-03-17 00:12:45+00",17.8,19.8,,43.1,-1529,3671,-2129,1030.57,43.1,0
"2020-03-17 00:17:45+00",19.4,20.4,,43.1,-1399,3380,-2049,1030.38,43.1,0
"2020-03-17 00:22:45+00",17.6,20.6,,43.1,-1422,3571,-2049,1030.38,43.1,0
"2020-03-17 00:27:45+00",17.5,20.5,,43.1,-1444,3516,-2053,1030.24,43.1,0
"2020-03-17 00:32:45+00",18.9,20.9,,43.1,-1300,3329,-1978,1030.13,43.1,0
"2020-03-17 00:37:45+00",17.3,20.3,,43.1,-1378,3486,-1995,1030.23,43.1,0
"2020-03-17 00:42:45+00",20.5,24.5,,43.1,-1036,2930,-1783,1030.13,43.1,0
"2020-03-17 00:47:45+00",18.8,21.8,,43.1,-1313,3363,-1982,1030.25,43.1,0
"2020-03-17 00:52:45+00",20.0,23.0,,43.2,-1621,3711,-2244,1030.12,43.1,0
"2020-03-17 00:57:45+00",18.5,21.5,,43.2,-1423,3424,-2037,1030.07,43.1,0
"2020-03-17 01:02:45+00",18.3,21.3,,43.3,-1384,3385,-2004,1029.98,43.2,0
"2020-03-17 01:07:45+00",18.4,20.4,,43.3,-1388,3482,-2047,1029.88,43.2,0
"2020-03-17 01:12:45+00",18.1,20.1,,43.3,-1510,3614,-2132,1029.83,43.2,0
"2020-03-17 01:17:45+00",18.3,20.3,,43.4,-1225,3261,-1881,1029.89,43.3,0
"2020-03-17 01:22:45+00",17.2,19.2,,43.4,-1433,3406,-2012,1030.01,43.3,0
"2020-03-17 01:27:45+00",19.3,21.3,,43.5,-1409,3457,-2062,1029.79,43.4,0
"2020-03-17 01:32:45+00",17.4,19.4,,43.6,-1332,3363,-1946,1029.82,43.4,0
"2020-03-17 01:37:45+00",17.6,19.6,,43.7,-1599,3656,-2176,1029.82,43.5,0
"2020-03-17 01:42:45+00",16.0,19.0,,43.8,-1387,3012,-1846,1029.96,43.6,0
"2020-03-17 01:47:45+00",19.4,22.4,,43.9,-1566,3447,-2100,1030.04,43.7,0
"2020-03-17 01:52:45+00",14.3,17.3,,43.9,-1035,2349,-1449,1030.05,43.7,0
"2020-03-17 01:57:45+00",17.6,19.6,,43.9,-1179,2883,-1730,1030.06,43.7,0
"2020-03-17 02:02:45+00",18.5,19.5,,43.8,-1645,3832,-2271,1029.79,43.7,0
"2020-03-17 02:07:45+00",16.9,19.9,,43.9,-1128,2532,-1584,1029.86,43.7,0
"2020-03-17 02:12:45+00",14.6,16.6,,43.9,-1112,2594,-1552,1029.71,43.7,0
"2020-03-17 02:17:45+00",19.6,21.6,,43.9,-1602,3710,-2245,1029.69,43.7,0
"2020-03-17 02:22:45+00",14.4,18.4,,43.9,-774,1839,-1152,1029.58,43.7,0
"2020-03-17 02:27:45+00",18.8,21.8,,43.8,-1585,3594,-2131,1029.51,43.7,0
"2020-03-17 02:32:45+00",16.7,19.7,,43.9,-1476,3299,-1970,1029.29,43.8,0
"2020-03-17 02:37:45+00",19.2,21.2,,43.7,-1123,2832,-1739,1029.36,43.6,0
"2020-03-17 02:42:45+00",19.4,21.4,,43.7,-560,1856,-1214,1029.32,43.6,0
"2020-03-17 02:47:45+00",18.1,20.1,,43.7,-1672,3636,-2203,1029.29,43.5,0
"2020-03-17 02:52:45+00",20.9,22.9,,43.6,-1699,3847,-2348,1029.09,43.5,0
"2020-03-17 02:57:45+00",17.8,21.8,,43.6,-1640,3519,-2114,1028.98,43.5,0
"2020-03-17 03:02:45+00",19.2,23.2,,43.6,-1487,3110,-1986,1029.03,43.4,0
"2020-03-17 03:07:45+00",16.9,19.9,,43.6,-1141,2374,-1596,1028.97,43.4,0
"2020-03-17 03:12:45+00",17.5,20.5,,43.7,-1304,2923,-1798,1028.97,43.5,0
"2020-03-17 03:17:45+00",17.5,19.5,,43.5,620,-419,-14,1028.91,43.4,0
"2020-03-17 03:22:45+00",18.8,21.8,,43.6,667,-305,-52,1028.78,43.4,0
"2020-03-17 03:27:45+00",16.7,18.7,,43.6,774,-617,148,1028.63,43.4,0
"2020-03-17 03:32:45+00",18.5,21.5,,43.5,883,-583,140,1028.57,43.4,0
"2020-03-17 03:37:45+00",18.4,20.4,,43.6,994,-858,298,1028.32,43.4,0
"2020-03-17 03:42:45+00",15.6,19.6,,43.6,654,-552,91,1028.29,43.4,0
"2020-03-17 03:47:45+00",16.0,18.0,,43.6,756,-593,128,1028.26,43.4,0
"2020-03-17 03:52:45+00",20.2,22.2,,43.6,712,-552,-20,1028.04,43.4,0
"2020-03-17 03:57:45+00",18.5,20.5,,43.4,668,-550,40,1027.96,43.4,0
"2020-03-17 04:02:45+00",19.5,20.5,,43.1,731,-457,-19,1027.9,43,0
"2020-03-17 04:07:45+00",16.3,18.3,,43,654,-304,-3,1027.93,42.9,0
"2020-03-17 04:12:45+00",19.3,22.3,,43,788,-337,11,1027.68,42.9,0
"2020-03-17 04:17:45+00",20.7,22.7,,43,832,-395,-8,1027.33,42.9,0
"2020-03-17 04:22:45+00",17.8,22.8,,43.1,738,-322,7,1027.25,43,0
"2020-03-17 04:27:45+00",17.3,20.3,,43.1,724,-289,22,1027.2,43,0
"2020-03-17 04:32:45+00",15.2,16.2,,43.2,613,-282,7,1027.23,43.1,0
"2020-03-17 04:37:45+00",19.0,20.0,,42.9,804,-264,-4,1027.12,43,0
"2020-03-17 04:42:45+00",17.0,19.0,,42.6,737,-213,-6,1027.17,42.8,0
"2020-03-17 04:47:45+00",17.5,19.5,,42.4,722,-266,-14,1027.11,42.6,0
"2020-03-17 04:52:45+00",16.0,19.0,,42.5,691,-198,12,1027.04,42.6,0
"2020-03-17 04:57:45+00",16.1,18.1,,42.6,689,-211,-4,1027,42.7,0
"2020-03-17 05:02:45+00",18.0,20.0,,42.7,751,-283,-1,1026.87,42.7,0
"2020-03-17 05:07:45+00",16.4,19.4,,42.6,695,-252,3,1026.76,42.7,0
"2020-03-17 05:12:45+00",17.9,19.9,,42.4,762,-235,5,1026.63,42.4,0
"2020-03-17 05:17:45+00",15.1,18.1,,42.5,635,-212,-7,1026.59,42.4,0
"2020-03-17 05:22:45+00",12.0,14.0,,42.7,532,-116,25,1026.53,42.5,0
"2020-03-17 05:27:45+00",14.2,16.2,,42.7,608,-150,-9,1026.54,42.5,0
"2020-03-17 05:32:45+00",13.5,16.5,,42.7,587,-105,23,1026.42,42.6,0
"2020-03-17 05:37:45+00",12.9,15.9,,42.8,555,-134,31,1026.41,42.7,0
"2020-03-17 05:42:45+00",15.1,17.1,,42.6,646,-154,14,1026.3,42.6,0
"2020-03-17 05:47:45+00",15.6,16.6,,42.5,685,-122,3,1026.3,42.5,0
"2020-03-17 05:52:45+00",12.6,14.6,,42.6,549,-123,13,1026.33,42.5,0
"2020-03-17 05:57:45+00",14.1,16.1,,42.5,593,-179,-3,1026.25,42.5,0
"2020-03-17 06:02:45+00",14.8,16.8,,42.5,656,-105,24,1026.07,42.4,0
"2020-03-17 06:07:45+00",14.9,16.9,,42.3,648,-143,2,1025.99,42.2,0
"2020-03-17 06:12:45+00",14.5,15.5,,42.1,627,-146,4,1026.06,42.1,0
"2020-03-17 06:17:45+00",13.5,15.5,,42.2,584,-67,13,1025.97,42.1,0
"2020-03-17 06:22:45+00",12.8,15.8,,42.2,566,-70,29,1025.96,42.1,0
"2020-03-17 06:27:45+00",13.0,15.0,,42.3,576,-39,21,1026.04,42.1,0
"2020-03-17 06:32:45+00",12.2,14.2,,42.6,539,-39,26,1026.03,42.2,0
"2020-03-17 06:37:45+00",12.5,14.5,,42.6,571,-13,30,1025.79,42.2,0
"2020-03-17 06:42:45+00",15.6,17.6,,42.5,650,-181,11,1025.61,42.2,0
"2020-03-17 06:47:45+00",13.8,15.8,,42.5,620,-39,28,1025.62,42.3,0
"2020-03-17 06:52:45+00",12.9,14.9,,42.3,566,-61,12,1025.49,42.2,0
"2020-03-17 06:57:45+00",13.4,15.4,,42.2,578,-86,20,1025.28,42.1,0
"2020-03-17 07:02:45+00",14.9,16.9,,42.2,652,-64,27,1025.07,42.1,0
"2020-03-17 07:07:45+00",16.1,18.1,,42.3,702,-82,25,1024.95,42.1,0
"2020-03-17 07:12:45+00",12.8,15.8,,42.4,564,-29,22,1024.95,42.1,0
"2020-03-17 07:17:45+00",12.9,14.9,,42.4,566,-55,25,1024.87,42.3,0
"2020-03-17 07:22:45+00",14.8,15.8,,42.4,649,-104,13,1024.8,42.3,0
"2020-03-17 07:27:45+00",13.4,15.4,,42.4,589,-84,6,1024.69,42.3,0
"2020-03-17 07:32:45+00",14.4,15.4,,42.5,620,-154,7,1024.62,42.4,0
"2020-03-17 07:37:45+00",16.0,18.0,,42.3,704,-82,5,1024.61,42.3,0
"2020-03-17 07:42:45+00",13.5,15.5,,42.4,593,-122,16,1024.47,42.3,0
"2020-03-17 07:47:45+00",14.0,16.0,,42.5,610,-96,21,1024.27,42.4,0
"2020-03-17 07:52:45+00",13.5,15.5,,42.6,601,-37,41,1024.09,42.5,0
"2020-03-17 07:57:45+00",15.5,17.5,,42.4,683,-48,33,1023.84,42.4,0
"2020-03-17 08:02:45+00",14.5,15.5,,42.3,634,-64,13,1023.92,42.2,0
"2020-03-17 08:07:45+00",12.5,13.5,,42.5,551,-26,36,1023.79,42.3,0
"2020-03-17 08:12:45+00",17.5,18.5,,42.4,766,-95,19,1023.68,42.3,0
"2020-03-17 08:17:45+00",15.3,17.3,,42.5,673,-45,33,1023.56,42.4,0
"2020-03-17 08:22:45+00",14.9,16.9,,42.6,643,-84,4,1023.66,42.4,0
"2020-03-17 08:27:45+00",14.7,16.7,,42.5,644,-78,21,1023.54,42.4,0
"2020-03-17 08:32:45+00",16.0,18.0,,42.5,702,-101,13,1023.4,42.5,0
"2020-03-17 08:37:45+00",14.6,16.6,,42.5,643,-68,31,1023.41,42.5,0
"2020-03-17 08:42:45+00",15.5,16.5,,42.4,671,-100,20,1023.36,42.3,0
"2020-03-17 08:47:45+00",16.8,18.8,,42.4,734,-117,5,1023.2,42.3,0
"2020-03-17 08:52:45+00",15.7,16.7,,42.5,688,-14,25,1023.41,42.3,0
"2020-03-17 08:57:45+00",14.8,16.8,,42.5,655,-78,21,1023.21,42.4,0
"2020-03-17 09:02:45+00",15.2,17.2,,42.5,665,-16,29,1023.26,42.4,0
"2020-03-17 09:07:45+00",15.4,17.4,,42.5,672,18,34,1023.35,42.3,0
"2020-03-17 09:12:45+00",15.7,16.7,,42.6,695,0,26,1023.22,42.4,0
"2020-03-17 09:17:45+00",15.7,17.7,,42.7,691,37,30,1023.1,42.5,0
"2020-03-17 09:22:45+00",14.3,16.3,,42.8,630,40,40,1023.01,42.5,0
"2020-03-17 09:27:45+00",12.6,14.6,,42.8,555,7,42,1022.87,42.6,0
"2020-03-17 09:32:45+00",16.1,17.1,,42.8,714,15,32,1022.71,42.7,0
"2020-03-17 09:37:45+00",17.2,19.2,,42.8,767,24,34,1022.5,42.7,0
"2020-03-17 09:42:45+00",15.9,18.9,,42.9,701,-24,32,1022.46,42.7,0
"2020-03-17 09:47:45+00",13.0,16.0,,43.1,573,10,30,1022.49,42.8,0
"2020-03-17 09:52:45+00",13.1,14.1,,43.1,575,35,53,1022.68,42.9,0
"2020-03-17 09:57:45+00",11.8,13.8,,43.2,518,61,37,1022.73,43,0
"2020-03-17 10:02:45+00",14.1,15.1,,43.2,623,74,27,1022.61,43,0
"2020-03-17 10:07:45+00",12.0,14.0,,43.2,558,57,48,1022.37,43,0
"2020-03-17 10:12:45+00",13.2,16.2,,43.3,579,69,32,1022.36,43,0
"2020-03-17 10:17:45+00",12.5,14.5,,43.4,551,54,19,1022.23,43.1,0
"2020-03-17 10:22:45+00",15.8,16.8,,43.5,704,1,22,1022.08,43.2,0
"2020-03-17 10:27:45+00",14.6,15.6,,43.5,646,39,34,1022.19,43.2,0
"2020-03-17 10:32:45+00",13.4,14.4,,43.6,594,46,19,1022.38,43.2,0
"2020-03-17 10:37:45+00",13.0,14.0,,43.6,578,50,25,1022.36,43.3,0
"2020-03-17 10:42:45+00",13.9,14.9,,43.6,619,16,33,1022.26,43.2,0
"2020-03-17 10:47:45+00",11.8,13.8,,43.7,522,86,37,1022.27,43.2,0
"2020-03-17 10:52:45+00",11.2,12.2,,43.8,499,105,40,1022.25,43.3,0
"2020-03-17 10:57:45+00",10.4,13.4,,43.8,451,96,30,1022.09,43.3,0
"2020-03-17 11:02:45+00",10.9,12.9,,43.8,540,37,108,1022.24,43.3,0
"2020-03-17 11:07:45+00",12.8,14.8,,43.8,617,66,101,1022.22,43.4,0
"2020-03-17 11:12:45+00",12.5,13.5,,43.8,650,-14,147,1022.19,43.4,0
"2020-03-17 11:17:45+00",10.1,12.1,,43.9,581,-125,196,1022.23,43.4,0
"2020-03-17 11:22:45+00",10.1,11.1,,43.9,787,-481,408,1022.18,43.5,0
"2020-03-17 11:27:45+00",9.1,11.1,,43.9,365,159,34,1022.05,43.5,0
"2020-03-17 11:32:45+00",11.3,13.3,,43.9,531,68,101,1021.85,43.5,0
"2020-03-17 11:37:45+00",11.2,12.2,,43.9,482,166,39,1021.85,43.6,0
"2020-03-17 11:42:45+00",11.8,14.8,,44.1,508,172,36,1021.65,43.7,1
"2020-03-17 11:47:45+00",10.2,11.2,,44.1,420,179,28,1021.75,43.9,1
"2020-03-17 11:52:45+00",12.4,14.4,,44.3,523,189,19,1021.54,44.1,17.8
"2020-03-17 11:57:45+00",10.8,12.8,,44.3,445,196,5,1021.53,44.3,7.2
"2020-03-17 12:02:45+00",11.6,13.6,,44.4,478,207,10,1021.56,44.4,6.3
"2020-03-17 12:07:45+00",10.0,12.0,,44.4,385,209,40,1021.51,44.5,14.9
"2020-03-17 12:12:45+00",9.8,11.8,,44.4,391,192,21,1021.51,44.5,19.9
"2020-03-17 12:17:45+00",12.2,13.2,,44.5,435,316,19,1021.55,44.6,28.2
"2020-03-17 12:22:45+00",8.7,10.7,,44.7,288,229,25,1021.58,44.8,31.4
"2020-03-17 12:27:45+00",10.5,13.5,,44.8,408,216,18,1021.32,45.2,48.2
"2020-03-17 12:32:45+00",9.6,11.6,,44.8,383,185,32,1021.54,45.3,42.1
"2020-03-17 12:37:45+00",11.7,13.7,,44.8,439,275,23,1021.31,45.4,36.6
"2020-03-17 12:42:45+00",9.8,11.8,,44.7,376,213,21,1021.52,45.3,32.2
"2020-03-17 12:47:45+00",9.0,10.0,,44.8,322,227,16,1021.77,45.4,40.5
"2020-03-17 12:52:45+00",8.9,9.9,,44.8,290,241,-1,1021.89,45.4,43.6
"2020-03-17 12:57:45+00",8.9,9.9,,45,317,223,13,1021.63,45.5,47.3
"2020-03-17 13:02:45+00",10.3,12.3,,45,391,230,22,1021.47,45.6,54.6
"2020-03-17 13:07:45+00",8.3,10.3,,45.2,-245,1126,-472,1021.39,45.8,56.5
"2020-03-17 13:12:45+00",10.0,11.0,,45.1,-993,2581,-1265,1021.43,45.8,31
"2020-03-17 13:17:45+00",8.8,9.8,,45.2,-818,2148,-1031,1021.36,45.8,36.9
"2020-03-17 13:22:45+00",9.0,10.0,,45.3,-584,1678,-744,1021.49,45.9,60
"2020-03-17 13:27:45+00",10.1,11.1,,45.4,-975,2473,-1201,1021.52,46.1,59.3
"2020-03-17 13:32:45+00",10.2,11.2,,45.5,-998,2541,-1230,1021.38,46.2,46.8
"2020-03-17 13:37:45+00",8.7,10.7,,45.7,207,289,3,1021.51,46.3,23.2
"2020-03-17 13:42:45+00",8.0,10.0,,45.7,290,17,177,1021.5,46.2,31.2
"2020-03-17 13:47:45+00",10.1,12.1,,45.7,-671,1749,-740,1021.57,46.3,75.2
"2020-03-17 13:52:45+00",9.2,10.2,,46.1,109,365,-2,1021.62,46.8,136.9
"2020-03-17 13:57:45+00",11.4,13.4,,46.1,183,464,-31,1021.52,47.2,105.9
"2020-03-17 14:02:45+00",7.1,9.1,,46.4,-32,392,-38,1021.66,47.5,94.2
"2020-03-17 14:07:45+00",9.8,11.8,,46.4,-236,703,-155,1021.76,47.7,121.6
"2020-03-17 14:12:45+00",6.9,7.9,,46.5,-654,1498,-673,1021.83,48.2,283.5
"2020-03-17 14:17:45+00",9.2,11.2,,46.7,-769,1531,-604,1021.86,48.7,180.9
"2020-03-17 14:22:45+00",7.6,8.6,,46.8,-850,1429,-582,1021.64,48.9,137
"2020-03-17 14:27:45+00",7.9,8.9,,46.9,-788,1273,-501,1021.72,48.7,131.4
"2020-03-17 14:32:45+00",7.5,7.5,,46.8,-737,983,-407,1021.76,48.7,185.5
"2020-03-17 14:37:45+00",8.4,8.4,,46.9,-704,979,-403,1021.73,48.8,134.8
"2020-03-17 14:42:45+00",6.4,8.4,,47.2,-458,619,-218,1021.56,49.1,277.9
"2020-03-17 14:47:45+00",6.7,6.7,,47.2,-65,273,4,1021.6,49.4,143
"2020-03-17 14:52:45+00",3.3,4.3,,47.4,-19,128,8,1021.51,49.7,189.2
"2020-03-17 14:57:45+00",5.2,6.2,,47.3,-177,136,-2,1021.5,49.7,74.9
"2020-03-17 15:02:45+00",5.4,6.4,,47.2,-466,614,-258,1021.43,49.7,69.3
"2020-03-17 15:07:45+00",6.6,7.6,,47,-678,740,-361,1021.24,49.7,60.4
"2020-03-17 15:12:45+00",8.3,9.3,,46.8,-767,848,-380,1021.34,49.7,69.1
"2020-03-17 15:17:45+00",8.5,8.5,,46.8,-775,829,-365,1021.19,49.5,66.5
"2020-03-17 15:22:45+00",6.5,7.5,,46.9,-599,680,-297,1020.95,49.4,63.2
"2020-03-17 15:27:45+00",8.9,10.9,,47,-734,788,-336,1021.2,49.3,38.5
"2020-03-17 15:32:45+00",8.0,10.0,,46.9,-818,908,-413,1020.99,49.1,146.8
"2020-03-17 15:37:45+00",9.7,10.7,,46.9,-890,931,-436,1020.95,49.5,389.5
"2020-03-17 15:42:45+00",9.6,10.6,,47.1,-447,180,-21,1020.88,50.1,274.3
"2020-03-17 15:47:45+00",7.9,8.9,,47.1,-595,455,-236,1020.59,50.8,359.4
"2020-03-17 15:52:45+00",8.3,9.3,,47.3,-586,534,-217,1020.76,51.8,480
"2020-03-17 15:57:45+00",7.1,10.1,,47.5,-347,245,-48,1020.8,52.8,492.8
"2020-03-17 16:02:45+00",7.7,8.7,,47.6,-375,201,-26,1020.85,53.4,448.6
"2020-03-17 16:07:45+00",6.5,7.5,,47.7,-318,210,-66,1020.79,53.8,476.8
"2020-03-17 16:12:45+00",5.9,6.9,,48,-386,262,-157,1020.73,54.9,555.5
"2020-03-17 16:17:45+00",5.7,7.7,,48.2,-245,29,20,1020.72,55.6,506.4
"2020-03-17 16:22:45+00",6.1,7.1,,48.1,-260,33,2,1020.62,56.2,421.4
"2020-03-17 16:27:45+00",6.5,7.5,,48.7,-274,98,25,1020.63,56.5,289.7
"2020-03-17 16:32:45+00",3.5,4.5,,48.8,-137,22,-2,1020.54,56.6,152.3
"2020-03-17 16:37:45+00",2.8,3.8,,49.1,-106,-56,36,1020.71,56.3,112.7
"2020-03-17 16:42:45+00",3.4,4.4,,49.2,-130,-25,-6,1020.75,55.8,89.4
"2020-03-17 16:47:45+00",2.6,3.6,,49.4,-95,28,18,1020.65,55.3,163.6
"2020-03-17 16:52:45+00",2.3,3.3,,49.6,-92,-2,-2,1020.39,55.1,157.8
"2020-03-17 16:57:45+00",2.7,4.7,,50,-107,-45,7,1020.17,55.1,449.9
"2020-03-17 17:02:45+00",3.1,4.1,,50.6,-31,-102,-14,1020.07,54.6,480.7
"2020-03-17 17:07:45+00",5.6,8.6,,51,-181,-138,-34,1019.93,55.1,436.3
"2020-03-17 17:12:45+00",4.5,6.5,,51.4,-186,-7,-24,1019.79,55.5,307.8
"2020-03-17 17:17:45+00",6.2,8.2,,51.4,-214,-157,28,1019.83,55.5,373.1
"2020-03-17 17:22:45+00",6.0,7.0,,51.2,-162,-210,0,1019.79,55.6,265.5
"2020-03-17 17:27:45+00",7.9,8.9,,50.8,-246,-252,17,1019.91,54.9,397.8
"2020-03-17 17:32:45+00",8.0,9.0,,51.2,-252,-242,24,1019.81,55.5,475.1
"2020-03-17 17:37:45+00",7.3,8.3,,51.6,-273,-154,-4,1019.66,56,439.1
"2020-03-17 17:42:45+00",8.3,10.3,,51.6,-293,-153,-57,1019.71,56.5,437
"2020-03-17 17:47:45+00",10.2,12.2,,50.7,-110,-210,-127,1019.57,53.9,386.1
"2020-03-17 17:52:45+00",8.8,10.8,,50.4,-95,-133,-119,1019.56,52.4,323.9
"2020-03-17 17:57:45+00",7.9,9.9,,50.8,-58,-239,-19,1019.57,52.6,410.1
"2020-03-17 18:02:45+00",8.2,10.2,,50.7,-31,-257,-51,1019.5,52.6,292.6
"2020-03-17 18:07:45+00",10.9,12.9,,49.4,69,-425,-31,1019.5,51.6,331.9
"2020-03-17 18:12:45+00",9.2,11.2,,49,50,-317,-36,1019.48,51.2,243.9
"2020-03-17 18:17:45+00",10.4,12.4,,49.1,25,-333,-71,1019.43,51,280.8
"2020-03-17 18:22:45+00",11.5,12.5,,48.8,6,-336,-104,1019.42,50.9,282.1
"2020-03-17 18:27:45+00",11.3,15.3,,49,-153,-15,-227,1019.27,50.7,242
"2020-03-17 18:32:45+00",12.8,14.8,,48.8,-450,381,-515,1019.14,50.5,246
"2020-03-17 18:37:45+00",11.6,14.6,,48.9,-338,210,-374,1019.01,50.6,306.6
"2020-03-17 18:42:45+00",13.4,15.4,,48.7,-104,-144,-240,1018.93,50.5,370.9
"2020-03-17 18:47:45+00",11.3,13.3,,48.2,119,-399,-30,1019.03,50.1,367
"2020-03-17 18:52:45+00",11.9,13.9,,48.1,32,-357,-74,1018.97,50.1,364.2
"2020-03-17 18:57:45+00",10.0,13.0,,49.3,-97,-195,-112,1018.95,51,358
"2020-03-17 19:02:45+00",11.3,12.3,,49.6,-154,-109,-220,1018.82,51.3,340.5
"2020-03-17 19:07:45+00",8.9,12.9,,50.3,-101,-187,-105,1018.83,51.8,338.9
"2020-03-17 19:12:45+00",10.0,13.0,,49.6,112,-280,-60,1018.65,51.6,339.8
"2020-03-17 19:17:45+00",7.4,9.4,,50.5,-82,-236,-27,1018.66,52.1,330.9
"2020-03-17 19:22:45+00",10.8,12.8,,50.4,-475,310,-426,1018.63,51.8,310.2
"2020-03-17 19:27:45+00",9.0,13.0,,50.5,-386,140,-275,1018.64,51.9,302.3
"2020-03-17 19:32:45+00",9.3,14.3,,50,-152,-61,-143,1018.63,51.5,300.7
"2020-03-17 19:37:45+00",10.8,12.8,,50.5,-506,241,-378,1018.69,52.1,293.2
"2020-03-17 19:42:45+00",9.3,13.3,,50.8,-307,12,-213,1018.78,52.2,282
"2020-03-17 19:47:45+00",10.6,12.6,,50,-33,-261,-115,1018.66,51.8,276.9
"2020-03-17 19:52:45+00",11.0,13.0,,48.9,-17,-262,-84,1018.64,50.7,273.6
"2020-03-17 19:57:45+00",10.6,11.6,,49.2,-13,-237,-110,1018.61,50.9,266.3
"2020-03-17 20:02:45+00",10.7,11.7,,49,122,-303,-66,1018.63,50.9,263.2
"2020-03-17 20:07:45+00",10.9,12.9,,48.3,136,-270,-77,1018.59,50.6,261.6
"2020-03-17 20:12:45+00",11.4,12.4,,48.6,98,-338,-71,1018.54,50.6,250
"2020-03-17 20:17:45+00",10.2,11.2,,49.2,71,-207,-86,1018.55,51,243.7
"2020-03-17 20:22:45+00",11.0,12.0,,49.6,13,-192,-140,1018.49,51.2,236.7
"2020-03-17 20:27:45+00",11.1,12.1,,49.4,32,-244,-125,1018.51,51.1,229.3
"2020-03-17 20:32:45+00",10.7,11.7,,50,-42,-133,-185,1018.52,51.5,223.5
"2020-03-17 20:37:45+00",9.3,10.3,,50.7,-5,-164,-114,1018.61,52,225.7
"2020-03-17 20:42:45+00",7.0,8.0,,51.9,-75,-18,-142,1018.55,53,170
"2020-03-17 20:47:45+00",4.8,6.8,,53,-11,-154,-21,1018.55,53.8,187.6
"2020-03-17 20:52:45+00",5.5,7.5,,54.1,-729,1065,-704,1018.55,54.8,225
"2020-03-17 20:57:45+00",8.0,9.0,,54.8,-760,1023,-765,1018.48,55.5,187.1
"2020-03-17 21:02:45+00",8.2,10.2,,55,-1032,1484,-1031,1018.47,55.8,174.2
"2020-03-17 21:07:45+00",5.7,7.7,,54.8,-283,247,-271,1018.54,55.6,157.5
"2020-03-17 21:12:45+00",5.9,6.9,,55.1,-25,-232,0,1018.5,55.6,154.9
"2020-03-17 21:17:45+00",5.0,6.0,,56,-72,-189,1,1018.53,56.4,24.3
"2020-03-17 21:22:45+00",4.4,5.4,,56.9,-182,14,10,1018.55,57.6,134.4
"2020-03-17 21:27:45+00",12.3,15.3,,57.3,-475,274,26,1018.58,58.7,1.8
"2020-03-17 21:32:45+00",12.9,14.9,,56.5,-498,291,44,1018.74,58.2,25
"2020-03-17 21:37:45+00",15.2,18.2,,57.2,-544,418,53,1018.82,57.7,33.1
"2020-03-17 21:42:45+00",11.7,12.7,,57.1,-429,324,50,1019,57.8,119.6
"2020-03-17 21:47:45+00",13.0,15.0,,56.5,-473,339,42,1018.99,57.6,3.1
"2020-03-17 21:52:45+00",14.0,16.0,,56.5,-511,371,59,1019.19,57,45.9
"2020-03-17 21:57:45+00",16.9,18.9,,56.8,-617,446,63,1019.21,57.1,64.8
"2020-03-17 22:02:45+00",14.5,15.5,,56.7,-511,387,61,1019.29,57.3,15.1
"2020-03-17 22:07:45+00",14.3,16.3,,56.2,-516,415,45,1019.44,57,0.2
"2020-03-17 22:12:45+00",15.7,17.7,,56.1,-512,482,53,1019.6,56.3,0.1
"2020-03-17 22:17:45+00",16.2,17.2,,56.2,-496,518,59,1019.67,56,16.4
"2020-03-17 22:22:45+00",16.3,19.3,,56.1,-465,561,46,1019.8,56.1,11.5
"2020-03-17 22:27:45+00",14.8,15.8,,55.9,-458,472,50,1019.9,56,2
"2020-03-17 22:32:45+00",12.8,13.8,,56,-356,442,40,1020,55.8,0
"2020-03-17 22:37:45+00",12.4,13.4,,56,-329,432,38,1020.15,55.7,0
"2020-03-17 22:42:45+00",10.4,12.4,,55.5,-301,345,34,1020.28,55.4,0
"2020-03-17 22:47:45+00",11.3,13.3,,55.1,-321,395,34,1020.38,55.1,0
"2020-03-17 22:52:45+00",14.1,16.1,,55.3,-383,496,42,1020.52,54.9,0
"2020-03-17 22:57:45+00",14.7,15.7,,55.3,-428,489,48,1020.74,54.8,0
"2020-03-17 23:02:45+00",14.9,15.9,,55.8,-450,485,52,1020.76,54.8,0
"2020-03-17 23:07:45+00",11.5,13.5,,55.6,-267,425,29,1020.95,54.9,0
"2020-03-17 23:12:45+00",12.9,14.9,,55.6,-270,496,29,1021.04,54.9,0
"2020-03-17 23:17:45+00",9.7,11.7,,55.5,-206,371,37,1021.01,54.9,0
"2020-03-17 23:22:45+00",7.7,8.7,,55.3,-109,316,12,1021.03,54.9,0
"2020-03-17 23:27:45+00",8.5,9.5,,55.2,-178,322,24,1021.2,54.8,0
"2020-03-17 23:32:45+00",10.0,11.0,,55.1,-242,357,25,1021.28,54.6,0
"2020-03-17 23:37:45+00",9.8,10.8,,55.1,-234,358,29,1021.37,54.5,0
"2020-03-17 23:42:45+00",10.3,12.3,,55,-231,389,27,1021.4,54.4,0
"2020-03-17 23:47:45+00",9.1,10.1,,54.9,-218,333,26,1021.53,54.4,0
"2020-03-17 23:52:45+00",9.1,10.1,,55,-192,344,27,1021.63,54.3,0
"2020-03-17 23:57:45+00",8.6,9.6,,55.1,-206,312,24,1021.67,54.3,0
